STARLINK-1205 (45184 NORAD) Tracking and Keplerian Element Data

This shows tracking and keplerian element data for the satellite.

Feedback or suggestion? Click here.




ElementValue
Catalog45184
NameSTARLINK-1205
Epoch Orbit777
Epoch Day94.25001157
Epoch Year2020
RAAN42.9311
Inclination53
Eccentricity0.0001061
Argument of Perigee12.0141
Mean Anonmoly77.6918
Mean Motion15.62716414
Decay Rate0.00034258
L11 45184U 20012G 20094.25001157 .00034258 00000-0 37892-3 0 9997
L22 45184 53.0000 42.9311 0001061 12.0141 77.6918 15.62716414 7775

Live tracking and technical data element details for STARLINK-1205 (NORAD 45184). STARLINK-1205 can be tracked NOW for your location showing map with azimuth and elevation plus other details from your city location.

Track the satellite on the map from your city or location and see movement details for azimuth, elevation, latitude, longitude, range, height, and movement on the map or in text.







IsCatalogInMostPopularTable: catalog: 45184, numindb: 6
Update: records affected: 1



GetName: 45184 STARLINK-1205

Hit Count: updated at: Mon, 06 Apr 2020 10:50:20 GMT